GFSSE_850_dewp_021.txt.gz
Dewpoint
14 14 14 14 14 13 9 7 7 7 7 7 7 6 7 7 8 8 8 9 8 8 10 12 12 12 11 9 9 11 11 11 5 3 2 9 10 10 9 11 11 6 9
14 14 14 13 13 10 8 6 6 7 7 7 6 6 6 7 7 8 9 9 9 8 9 10 11 12 13 12 12 12 13 13 12 5 8 13 12 11 10 9 6 3 6
13 14 14 13 11 9 9 9 9 8 6 6 6 7 7 7 7 7 8 9 9 9 8 9 9 11 12 12 12 14 14 14 12 8 7 13 13 10 10 8 6 9 10
13 14 14 12 9 9 10 10 9 7 7 6 6 6 7 6 5 5 8 9 9 9 7 9 11 11 12 13 13 13 13 13 13 10 7 7 12 11 9 7 7 12 10
13 14 14 11 8 8 9 9 8 7 6 5 6 7 7 6 8 7 9 10 10 9 7 10 11 11 12 13 13 13 13 13 11 11 8 6 7 11 8 6 5 10 10
14 14 13 8 6 7 8 8 7 7 7 6 6 8 7 9 9 9 10 11 11 10 9 10 11 12 13 14 14 14 14 12 12 13 2 5 6 9 9 8 11 11 11
14 13 12 9 6 7 8 8 7 6 5 6 7 8 9 11 11 10 11 12 11 11 10 11 11 12 13 13 14 14 12 11 13 10 11 2 6 7 10 13 11 5 7
13 11 9 9 7 6 8 8 8 6 6 6 8 8 10 11 11 12 12 12 11 11 11 11 12 13 14 14 14 14 12 13 10 10 13 3 6 10 13 11 8 7 -0
11 10 9 8 7 6 6 7 8 8 6 6 8 8 10 13 13 13 13 12 10 11 13 13 13 13 14 14 14 12 12 13 11 10 12 9 5 8 11 9 7 9 1
11 11 10 9 8 8 7 7 7 8 7 6 8 9 11 15 14 13 12 11 10 11 14 14 14 14 14 13 13 13 13 13 12 13 11 12 7 4 4 9 6 8 8
12 11 11 11 11 10 9 8 8 8 8 6 7 11 14 14 13 13 13 11 10 13 14 14 13 13 13 14 13 12 12 12 13 12 12 12 10 5 6 7 4 4 8
13 13 12 12 11 11 11 9 8 8 7 6 7 12 13 13 12 13 13 12 11 12 14 13 13 12 13 13 14 13 12 13 12 12 12 12 12 10 6 7 6 6 8
13 13 12 12 11 10 10 9 8 7 6 6 7 12 14 14 14 14 13 14 11 11 13 13 13 12 13 11 11 11 12 11 11 10 10 10 11 13 11 5 5 7 8
13 13 13 12 11 10 9 8 7 6 6 6 9 12 14 13 14 14 13 13 13 14 13 12 12 13 12 10 10 10 10 10 10 10 11 11 10 11 13 10 6 5 7
14 13 13 12 10 9 7 6 6 6 7 7 11 12 13 13 14 14 13 14 14 14 13 13 13 13 13 12 11 11 10 11 10 10 11 11 11 10 12 13 10 7 5
14 14 13 12 9 8 6 7 7 8 9 10 13 14 14 13 14 14 13 13 13 13 14 13 13 14 14 13 13 10 10 10 10 12 11 12 11 10 11 12 13 12 8
14 14 11 11 9 8 7 12 8 12 11 14 14 14 15 14 14 15 14 14 14 14 14 14 14 14 14 10 11 10 9 9 10 10 10 11 12 12 10 11 12 13 13
13 14 14 13 12 11 9 13 12 14 14 15 13 14 15 15 15 15 14 14 13 14 14 15 14 13 13 11 10 9 10 10 11 10 11 11 11 13 12 12 11 12 12
13 13 14 14 14 13 11 14 14 15 14 14 14 14 14 15 15 15 15 13 14 14 14 13 13 12 13 12 11 9 10 9 12 9 10 12 12 12 12 12 12 10 10
12 12 13 15 14 13 12 14 14 15 15 15 14 14 14 15 15 15 14 13 14 12 13 12 14 12 13 10 9 10 11 10 11 10 9 9 11 11 11 11 12 12 12
12 13 13 14 15 14 13 14 14 14 16 15 14 14 14 14 15 15 14 14 14 13 13 12 12 13 7 8 11 9 10 10 12 10 10 9 8 8 9 8 11 12 12
13 13 13 14 14 14 14 14 13 13 15 14 15 14 13 14 15 15 14 15 13 13 13 13 13 12 6 11 9 10 10 10 11 11 9 7 6 7 7 6 8 10 11
13 13 14 13 14 14 14 14 14 14 14 14 14 13 13 14 15 14 14 15 13 13 13 14 13 11 9 11 10 9 10 11 9 9 8 7 7 7 6 6 6 5 5
12 12 13 13 14 14 14 15 14 14 14 14 13 13 13 14 14 14 15 15 13 13 12 12 14 8 9 10 10 9 10 11 11 9 8 7 8 7 8 7 7 7 6
12 12 12 13 13 14 14 15 15 15 15 14 11 13 13 14 13 14 15 15 15 14 13 12 13 8 8 10 10 9 8 11 11 10 9 8 8 8 8 8 8 8 8
12 11 11 12 13 13 14 14 14 14 14 14 14 13 14 14 14 15 15 15 15 14 13 10 7 7 3 9 10 10 8 7 8 9 9 9 9 9 9 9 9 8 8

GFSSE_850_dewp_024.txt.gz
Dewpoint
15 15 15 15 14 14 14 14 13 13 13 9 8 7 7 8 8 9 8 8 9 11 12 12 11 10 9 8 10 10 10 5 3 1 2 10 11 10 10 8 10 12 11
14 15 14 15 14 11 10 12 13 11 8 7 7 7 7 7 8 9 9 8 8 11 11 11 12 12 11 11 10 11 12 10 5 6 12 9 10 11 10 9 5 10 12
14 14 14 14 11 7 8 8 8 7 6 7 7 7 7 7 7 8 9 8 7 11 12 12 11 12 12 12 12 14 14 12 6 9 12 12 11 11 8 4 4 4 9
13 14 14 14 8 6 7 8 7 7 6 7 7 7 6 6 6 8 9 9 8 9 11 13 12 13 13 12 13 13 13 13 11 7 8 12 10 12 7 10 10 13 12
14 13 14 11 9 8 9 8 7 7 5 6 7 7 6 7 7 9 10 11 8 8 11 12 12 12 13 13 13 13 12 12 10 7 6 8 12 8 6 5 11 11 10
14 13 13 9 10 10 9 7 7 6 5 6 7 7 10 8 9 10 11 12 10 10 11 11 12 12 13 14 14 14 14 13 12 10 5 8 9 9 6 7 12 11 12
14 14 11 8 9 9 8 7 7 6 6 7 8 9 10 10 10 11 11 12 11 11 11 12 12 13 13 14 14 13 12 13 13 11 6 6 7 8 9 10 9 9 10
14 14 9 7 8 8 7 7 6 6 7 7 8 11 10 11 11 12 11 12 12 11 11 13 14 14 13 14 13 13 13 11 12 11 9 7 7 9 13 9 7 1 10
13 12 10 6 7 8 7 7 6 6 6 7 8 10 12 12 12 12 12 11 11 12 12 13 13 13 13 13 12 13 13 13 10 11 12 6 9 12 12 7 7 2 6
12 11 10 8 6 7 7 7 7 6 6 7 8 11 14 14 13 12 11 10 11 13 13 13 14 13 12 12 13 12 13 13 12 12 11 9 8 12 13 8 12 7 8
11 10 8 8 7 5 6 7 7 8 7 6 8 12 14 13 13 13 11 10 12 14 14 13 12 12 13 12 13 12 12 12 12 12 12 12 7 4 5 11 12 10 9
11 10 9 8 7 6 6 7 7 8 7 6 8 13 14 14 12 13 12 10 11 13 14 13 12 13 13 12 13 12 13 13 12 11 11 12 12 7 5 11 5 10 10
11 11 11 10 10 10 9 8 7 8 8 6 7 13 13 13 13 14 13 13 11 12 13 14 13 12 13 11 9 9 11 12 10 10 10 11 12 14 8 6 6 7 11
13 12 11 11 10 10 10 9 8 8 7 6 7 12 14 14 14 13 13 11 12 13 13 13 13 13 13 9 9 9 10 10 10 10 11 11 11 12 14 8 5 7 9
13 12 12 11 11 10 10 9 8 7 6 6 8 11 13 12 14 13 14 13 14 13 13 13 13 13 13 12 11 10 9 10 10 11 11 11 11 10 12 14 12 6 7
13 13 13 11 11 10 9 8 6 5 6 7 11 12 13 13 13 14 13 13 13 13 13 13 13 12 13 13 13 10 9 9 10 12 11 11 11 11 11 12 13 11 8
13 12 12 12 11 10 8 6 5 6 8 8 12 13 14 14 14 14 15 14 14 14 14 14 14 13 13 11 12 10 9 9 9 9 10 11 12 12 10 11 12 13 13
14 13 13 12 11 9 7 6 8 8 9 12 13 13 14 15 14 15 15 14 14 14 14 14 14 13 13 12 10 9 10 9 10 10 11 11 11 12 12 11 11 12 12
14 13 13 11 10 9 7 7 11 9 12 14 15 14 14 14 15 15 15 15 14 14 14 14 14 14 13 12 11 10 10 8 11 9 9 11 11 11 12 11 13 10 11
13 13 13 11 12 11 10 9 12 12 14 14 14 14 14 14 15 15 15 14 14 14 14 14 13 14 12 12 8 9 10 10 10 9 9 9 10 11 10 11 12 11 12
12 12 12 13 14 13 13 10 14 14 15 15 14 14 14 14 14 15 15 15 14 14 13 13 11 13 13 7 11 10 11 10 11 10 10 9 8 8 8 7 10 11 11
12 12 12 12 13 14 14 12 12 13 14 15 15 14 14 13 13 15 15 15 15 15 13 14 13 13 11 10 10 10 9 10 11 11 10 8 7 5 5 6 9 10 11
12 12 12 12 12 13 14 13 13 14 14 13 15 15 14 14 14 14 14 14 15 15 13 13 14 13 7 10 10 9 10 10 10 11 9 8 7 7 6 7 5 5 6
12 12 12 12 13 13 14 14 13 13 13 13 13 15 15 14 13 14 14 15 15 15 13 12 14 14 6 9 9 9 9 10 10 9 9 8 7 7 8 7 8 7 7
13 13 12 12 13 13 13 14 14 14 14 13 13 13 14 14 13 13 14 14 15 15 14 13 12 14 7 9 10 9 9 10 11 10 9 9 7 8 8 8 8 8 8
13 14 13 12 13 13 13 14 14 14 14 14 14 14 13 13 13 13 13 14 15 16 15 13 12 12 6 6 10 10 9 8 9 10 10 9 9 8 8 9 9 9 8

GFSSE_850_dewp_030.txt.gz
Dewpoint
12 12 13 13 11 12 12 13 11 8 8 7 7 7 8 9 9 9 13 14 14 14 12 13 12 9 9 9 11 11 5 2 1 7 9 10 10 12 12 12 14 14 11
15 14 13 12 11 11 13 13 10 10 8 7 7 8 8 9 9 12 13 13 13 14 13 11 10 9 10 11 12 13 5 7 12 11 11 10 11 9 10 13 15 12 11
15 15 15 13 13 14 14 11 11 9 7 7 8 7 8 9 9 9 11 13 12 11 11 12 12 11 12 12 13 12 7 9 13 12 14 14 14 8 7 13 13 13 13
16 15 16 15 14 13 12 11 10 8 7 7 8 7 8 9 9 10 13 13 12 12 11 12 12 12 12 13 13 13 10 6 9 12 14 14 13 6 3 6 11 12 13
15 16 15 14 13 12 11 11 8 7 7 8 7 6 8 10 10 11 13 14 12 11 11 12 12 12 12 13 14 12 11 10 7 15 16 15 13 13 11 13 10 8 12
16 17 13 13 13 11 10 9 7 7 7 7 7 7 9 11 11 13 14 14 11 11 12 13 13 14 14 14 13 13 13 13 13 14 15 15 14 10 12 14 13 9 7
16 16 14 11 10 9 8 7 7 7 7 7 10 8 10 11 12 12 13 12 11 13 14 13 14 13 13 12 12 11 13 13 15 14 14 14 12 11 14 11 12 12 12
15 15 14 7 8 8 7 7 6 7 8 9 10 10 11 12 12 12 12 11 12 13 14 13 13 13 12 13 13 12 11 13 15 14 14 15 10 12 11 9 9 11 12
15 14 14 14 11 8 8 7 6 7 8 11 10 11 12 12 12 11 11 11 12 13 13 13 12 13 13 12 13 13 12 11 15 14 13 14 13 13 10 6 12 10 10
14 14 14 14 15 15 9 7 7 7 8 10 11 12 13 12 12 12 12 13 13 13 13 12 12 12 13 12 11 12 13 14 15 15 13 14 12 13 8 8 3 9 3
15 13 13 14 15 15 15 9 6 7 8 9 14 14 14 17 17 16 13 12 13 14 13 12 12 12 13 11 11 11 14 13 13 13 15 8 12 11 10 11 6 7 2
15 13 13 14 14 15 14 14 14 14 14 15 15 15 17 17 16 16 14 13 13 14 13 12 12 13 12 10 11 13 14 13 13 13 13 11 10 11 9 11 11 9 5
15 13 13 14 15 15 14 15 15 14 14 15 14 16 17 17 15 17 16 15 15 13 15 16 16 15 13 11 9 10 12 12 11 11 11 11 12 12 10 13 11 9 9
15 14 14 14 15 15 15 14 14 14 14 14 14 13 15 16 17 17 16 16 14 15 15 15 15 15 15 14 12 10 10 11 11 11 11 10 11 13 11 11 9 9 10
15 15 14 15 15 15 15 14 14 14 14 13 14 14 16 16 17 16 17 16 16 16 15 15 15 15 14 13 13 12 11 11 11 11 13 10 10 11 14 12 9 11 9
14 14 14 15 15 15 15 15 15 15 15 14 14 14 13 15 14 16 16 16 16 16 16 15 15 16 13 13 14 13 10 11 11 12 12 12 11 10 12 13 13 11 7
14 14 14 15 15 13 13 12 15 15 15 14 13 11 13 13 14 15 16 16 16 17 13 15 15 15 14 12 12 11 10 11 12 11 12 13 13 11 10 12 12 13 11
14 14 15 15 15 15 15 15 15 15 15 14 13 14 13 13 14 14 15 16 16 15 15 16 15 14 12 11 12 11 10 12 12 12 12 13 12 14 11 11 11 12 12
14 15 16 16 16 16 16 16 15 15 14 13 13 14 14 13 14 15 17 16 15 16 16 16 15 15 12 12 11 10 9 11 10 10 11 12 13 12 13 10 11 11 11
15 16 16 16 16 16 16 16 16 15 13 13 13 14 13 12 13 14 17 15 15 16 16 16 14 14 13 12 10 9 10 11 11 10 10 11 13 13 12 14 14 13 12
15 16 16 17 16 16 16 16 15 14 13 13 14 13 13 12 13 14 16 15 16 16 16 16 15 15 13 13 10 11 11 11 11 10 10 10 11 11 11 12 12 12 12
15 16 17 16 15 11 15 15 15 13 13 13 14 15 14 14 14 14 14 16 16 16 14 15 13 14 13 10 10 10 9 10 10 10 10 10 10 9 10 11 13 14 12
14 16 16 15 15 12 15 16 16 14 14 14 14 16 16 13 14 14 13 14 16 15 16 15 15 14 12 11 11 11 9 8 9 10 12 10 11 10 10 11 12 13 12
14 15 16 16 16 15 11 15 14 14 13 14 14 15 16 14 14 14 13 14 14 16 17 15 16 15 14 11 12 11 11 11 9 10 10 11 11 11 11 10 11 11 11
14 15 16 16 14 16 12 14 16 15 14 14 14 15 16 17 14 16 14 14 14 14 16 16 15 14 15 10 11 11 11 11 11 10 10 10 11 11 11 11 10 10 11
14 15 16 16 11 12 11 11 15 16 15 15 15 15 16 16 16 14 16 14 14 15 15 17 15 14 13 10 11 11 10 10 10 10 10 10 10 10 11 10 11 11 11

GFSSE_850_dewp_033.txt.gz
Dewpoint
11 13 14 12 11 12 13 11 7 6 7 8 8 9 9 8 9 12 13 14 14 12 12 12 9 9 9 10 11 4 2 2 7 10 10 10 12 12 11 14 15 14 13
11 13 13 11 11 13 13 9 7 8 7 8 8 9 9 9 13 13 12 13 14 13 11 10 9 11 11 12 13 6 10 10 8 10 8 8 8 10 13 15 15 10 13
12 11 12 11 11 13 13 9 9 8 7 8 9 9 10 12 9 11 12 12 11 11 12 12 11 11 12 13 13 10 8 12 10 14 14 14 12 9 13 14 13 11 12
11 14 15 11 12 14 11 11 10 8 7 8 8 9 11 10 11 13 13 12 12 11 12 12 12 12 13 13 13 11 7 8 11 15 15 13 11 5 10 13 13 12 12
14 16 15 12 14 13 11 11 8 7 7 8 7 8 9 10 10 13 13 11 11 12 12 12 12 12 13 14 13 12 11 7 14 15 14 13 14 8 7 8 9 10 14
16 16 14 14 14 11 11 8 7 7 8 7 7 8 10 14 14 14 13 10 12 13 13 13 14 13 13 12 12 12 13 13 13 14 15 14 15 12 13 14 12 10 8
16 16 15 14 13 11 9 7 7 8 7 8 8 9 11 11 11 13 11 11 13 13 14 14 13 12 12 12 11 11 13 14 13 14 14 15 5 11 12 10 11 10 10
16 14 15 13 13 9 8 7 8 7 7 10 9 10 11 11 11 11 11 13 14 13 13 13 13 12 12 13 12 11 12 14 13 14 14 15 11 12 9 10 11 12 11
14 14 15 15 12 8 7 7 7 8 9 10 10 11 12 11 11 11 10 12 13 13 13 12 12 13 11 11 12 12 12 14 14 13 13 13 11 12 6 10 11 11 11
13 13 14 15 15 15 9 6 7 8 10 10 12 12 12 11 11 11 11 12 13 12 12 12 11 10 9 9 11 10 13 14 15 12 14 12 12 10 7 7 10 6 11
13 12 12 14 15 16 15 10 7 8 9 11 13 12 15 16 16 15 13 13 13 13 12 12 10 13 13 10 7 11 14 14 13 14 14 6 10 12 10 7 5 4 5
13 12 12 13 14 14 14 11 15 14 14 15 16 13 17 16 16 17 10 12 12 13 12 12 12 13 14 14 12 14 14 11 12 13 12 10 9 11 9 11 9 7 2
12 12 12 13 14 14 13 14 14 13 14 15 16 17 16 16 16 15 15 15 14 12 15 15 16 13 12 12 9 12 10 12 11 13 10 10 9 9 11 10 10 8 7
13 12 12 13 14 14 14 13 13 13 13 13 15 13 15 16 15 17 16 15 14 15 15 16 15 15 14 12 10 9 9 11 10 13 10 8 12 11 7 12 9 11 10
13 12 12 13 14 15 15 13 13 13 13 12 14 15 16 16 15 15 16 16 15 15 15 14 15 15 14 12 14 13 11 9 10 13 12 7 9 13 12 11 11 9 10
13 12 13 14 15 15 15 15 14 13 13 13 13 14 14 15 15 16 16 15 15 16 16 15 15 15 14 13 12 11 10 11 9 12 13 9 7 9 12 13 10 9 6
13 13 13 14 15 16 16 16 15 14 14 13 13 14 16 14 15 16 16 15 15 15 14 14 16 15 12 13 12 9 11 12 10 11 14 14 13 10 9 12 13 12 10
13 14 14 14 15 16 16 16 15 14 14 13 13 14 15 13 15 16 17 16 16 15 14 15 14 13 13 10 11 10 10 10 11 10 12 14 14 14 10 9 11 12 13
13 14 14 14 14 15 16 16 16 15 15 13 13 13 14 13 14 16 16 16 15 16 15 14 15 12 10 11 12 10 10 10 12 11 11 11 12 14 14 10 9 10 11
14 14 15 15 15 15 16 16 16 15 15 14 13 13 15 16 14 15 16 17 15 16 15 15 14 13 12 11 10 9 10 11 10 11 10 12 12 11 13 12 13 13 11
13 14 15 16 16 16 16 16 15 15 14 13 13 13 15 16 17 17 17 17 15 15 15 15 15 13 13 10 10 10 10 10 10 9 9 10 10 12 11 11 13 15 13
14 15 16 16 16 16 16 16 15 14 13 13 13 14 15 17 17 17 17 17 16 17 14 13 13 14 12 10 12 9 9 9 9 10 9 9 10 9 10 11 12 13 14
13 15 16 16 17 16 16 16 16 15 13 13 13 14 16 17 17 17 18 15 17 16 16 16 15 14 13 10 11 12 9 9 8 9 9 10 10 9 10 11 12 12 12
13 15 16 17 16 16 16 16 16 15 13 13 13 13 15 17 17 17 17 17 17 16 16 16 16 15 12 11 10 12 13 13 12 10 10 10 10 10 10 10 11 11 11
12 14 15 16 17 16 16 16 16 15 13 13 13 13 14 16 17 17 18 17 17 16 15 14 17 13 14 12 11 10 10 9 11 11 10 10 11 10 11 10 10 11 11
12 13 15 16 16 16 16 14 16 15 14 14 13 14 15 15 17 17 17 17 16 17 17 17 17 16 14 13 11 11 11 11 11 11 10 11 11 11 10 10 10 10 11

GFSSE_850_dewp_036.txt.gz
Dewpoint
13 13 11 10 9 10 10 8 7 8 9 12 9 8 8 9 11 13 13 13 12 12 12 10 9 9 10 12 4 3 0 1 5 5 7 9 11 11 14 14 15 11 11
11 12 10 10 10 12 11 8 8 8 10 8 9 9 9 12 13 11 11 13 12 11 10 9 10 11 13 12 6 11 11 9 9 7 7 8 11 12 15 15 16 12 14
9 10 11 13 13 13 12 8 9 8 8 8 9 11 12 8 10 11 11 11 11 11 12 11 11 13 13 12 7 7 10 12 14 15 14 15 8 13 15 15 12 11 13
9 11 10 12 13 12 11 9 8 8 8 8 13 14 11 10 13 12 12 11 11 12 12 12 12 13 13 12 10 5 10 12 14 13 13 13 8 11 14 12 13 12 12
13 15 10 11 13 13 12 10 8 7 8 7 8 10 10 8 13 12 10 11 12 12 12 12 12 13 14 13 12 10 14 14 14 15 15 15 13 3 10 12 11 13 13
15 15 11 11 13 14 11 8 7 7 7 7 7 10 11 12 13 11 11 13 13 13 13 13 13 13 11 11 12 12 12 14 14 13 13 13 11 12 12 13 11 12 7
15 17 11 13 13 11 9 7 7 7 7 8 8 11 11 10 12 10 13 13 13 13 12 12 12 12 12 12 10 12 12 14 14 15 15 11 8 12 11 11 7 7 6
16 16 13 13 13 10 7 7 7 7 9 9 10 11 11 11 11 10 13 13 13 12 12 12 11 11 11 11 10 12 13 13 15 14 14 10 11 8 11 12 12 11 9
15 16 12 13 11 9 7 7 7 8 10 10 11 11 11 11 10 10 13 13 12 12 11 11 11 10 10 10 11 12 13 11 13 13 13 9 10 5 8 11 11 10 11
13 16 15 15 10 7 6 6 7 8 10 10 12 12 12 11 11 10 11 12 12 11 10 10 10 9 7 9 10 14 15 14 12 15 12 10 10 6 7 9 6 10 10
14 14 15 15 12 14 8 6 7 9 10 11 12 12 14 15 16 15 13 12 12 11 11 11 12 14 11 10 12 13 14 13 13 14 13 6 9 6 6 3 5 5 10
13 13 14 14 15 15 15 7 7 8 10 14 16 8 14 15 16 17 11 11 12 13 12 10 13 14 14 15 13 10 11 13 14 13 11 8 7 7 9 7 7 2 4
12 12 13 14 14 14 14 8 12 13 14 16 15 9 14 16 15 15 14 15 14 14 14 11 13 14 14 14 14 10 11 13 13 12 11 6 5 7 9 9 8 7 3
11 11 12 14 14 13 14 12 14 13 14 15 15 14 15 15 15 12 15 16 16 15 14 15 14 14 12 10 11 13 11 12 13 12 11 5 10 5 10 8 9 8 9
12 11 12 14 12 13 15 12 13 13 13 13 14 11 16 15 16 14 16 15 16 16 15 16 15 14 13 10 12 11 11 10 11 13 11 6 10 10 5 10 7 8 9
12 11 13 14 12 14 14 13 14 13 12 13 13 13 15 17 16 16 16 15 15 15 15 16 15 14 13 12 10 10 12 11 10 13 10 9 6 10 13 11 9 9 8
12 11 12 14 14 14 14 15 14 14 14 13 14 13 13 16 15 15 16 15 15 15 14 14 13 14 13 12 10 10 9 10 11 12 14 14 13 9 10 12 11 9 8
12 12 13 13 15 13 14 14 14 15 14 14 13 13 13 13 15 14 15 16 13 15 15 14 13 14 11 12 10 11 10 10 10 13 14 14 13 13 10 9 11 12 12
12 12 13 13 14 15 15 15 14 15 14 14 13 13 13 11 13 15 15 15 15 15 15 14 13 13 11 10 10 10 9 10 12 10 11 11 12 12 12 11 9 10 11
13 13 13 14 14 15 15 15 16 15 14 14 13 13 13 14 12 14 16 16 16 15 14 13 13 11 12 11 10 10 10 11 11 11 10 12 13 13 13 12 12 13 11
13 13 14 14 14 15 15 15 16 15 15 14 14 13 13 14 13 13 15 16 15 15 16 13 12 12 13 11 9 11 10 11 9 9 11 11 11 10 13 11 13 13 11
13 14 14 14 15 15 15 16 15 16 15 14 13 13 13 14 15 14 14 17 17 16 14 12 14 15 12 10 12 10 10 10 9 10 9 9 10 9 10 12 12 12 14
13 14 14 14 15 15 15 16 16 15 14 14 13 13 13 14 15 15 16 15 16 16 16 15 8 13 12 10 12 13 12 9 9 9 9 9 9 9 9 11 12 12 12
13 13 14 14 15 16 15 16 16 15 15 14 13 13 14 14 14 16 16 15 16 14 16 15 11 14 14 10 9 13 13 13 10 9 10 11 9 10 10 11 11 7 10
12 14 14 14 15 16 15 17 16 16 15 13 13 13 14 14 15 15 17 14 13 15 17 16 15 13 11 13 10 10 10 10 11 11 10 11 10 11 11 10 11 11 11
12 15 16 15 16 16 16 15 17 16 15 14 13 14 13 15 16 16 17 17 15 13 17 16 14 12 13 12 12 12 11 10 10 10 11 10 11 10 10 11 10 10 11